Volver al catálogo

CZ-3B R/B

ActivoGTO
NORAD 25405·ROCKET BODY·🇨🇳 China

Lanzado Jul 18, 1998 desde Xichang Satellite Launch Center

Loading…

TLE

EnvejeciendoSource: Space-Track

Época: Sep 14, 2026, 08:47 UTC

1 25405U 98044B   26257.36606391 -.00000102  00000-0  32310-3 0  9993
2 25405  19.0294 325.6896 7160988 141.3305 302.1715  2.25769972232092

Sigue CZ-3B R/B en tiempo real con AllMySat

Download on the App Store